Weather History for Mosinee, WI

Change the Weather History Date:

Tuesday, February 4, 2014

  Actual Average Record
Temperature  
Mean Temperature 6 °F -  
Max Temperature 15 °F 25 °F 46 °F (2005)
Min Temperature -4 °F 9 °F -18 °F (2007)
Degree Days  
Heating Degree Days 60    
Moisture  
Dew Point 2 °F    
Average Humidity 80    
Maximum Humidity 92    
Minimum Humidity 58    
Precipitation  
Precipitation 0.00 in - - ()
Sea Level Pressure  
Sea Level Pressure 30.31 in    
Wind  
Wind Speed 3 mph (NNW)    
Max Wind Speed 7 mph    
Max Gust Speed -    
Visibility 8 miles    
Events Snow    
Averages and records for this station are not official NWS values.
T = Trace of Precipitation, MM = Missing Value Source: NWS Daily Summary

Daily Weather History Graph

Daily Weather History Graph

Search for Another Location

Airport:

Trip Planner

Search our weather history database for the weather conditions in past years. The results will help you decide how hot, cold, wet, or windy it might be!

Date:

Astronomy

Feb. 04, 2014 Rise Set
Actual Time 7:14 AM CST 5:11 PM CST
Civil Twilight 6:43 AM CST 5:42 PM CST
Nautical Twilight 6:08 AM CST 6:17 PM CST
Astronomical Twilight 5:34 AM CST 6:51 PM CST
Moon 9:36 AM CST (2/4) 11:22 PM CST (2/4)
Length of Visible Light 10h 58m
Length of Day
9h 57m
Waxing Crescent, 29% of the Moon is Illuminated
Feb 4
Waxing Crescent
Feb 6
First Quarter
Feb 14
Full
Feb 22
Last Quarter
Mar 1
New

Hourly Weather History & Observations

Time (CST) Temp. Windchill Dew Point Humidity Pressure Visibility Wind Dir Wind Speed Gust Speed Precip Events Conditions
12:15 AM 5.0 °F -2.1 °F 1.4 °F 85% 30.28 in 10.0 mi West 3.5 mph - N/A   Scattered Clouds
12:35 AM 3.2 °F -6.2 °F 1.4 °F 92% 30.28 in 10.0 mi West 4.6 mph - N/A   Scattered Clouds
12:55 AM 5.0 °F -5.6 °F 3.2 °F 92% 30.29 in 7.0 mi WNW 5.8 mph - N/A   Clear
1:15 AM 5.0 °F -4.1 °F 3.2 °F 92% 30.30 in 5.0 mi WNW 4.6 mph - N/A   Clear
1:35 AM 3.2 °F - 1.4 °F 92% 30.30 in 3.0 mi Calm Calm - N/A Snow Light Snow
1:55 AM 1.4 °F - -0.4 °F 92% 30.30 in 3.0 mi Calm Calm - N/A Snow Light Snow
2:15 AM 1.4 °F - -0.4 °F 92% 30.31 in 7.0 mi Calm Calm - N/A   Clear
2:35 AM 1.4 °F - -0.4 °F 92% 30.33 in 5.0 mi Calm Calm - N/A Snow Light Snow
2:55 AM 1.4 °F - -0.4 °F 92% 30.33 in 3.0 mi Calm Calm - N/A Snow Light Snow
3:15 AM 1.4 °F - -0.4 °F 92% 30.33 in 4.0 mi Calm Calm - N/A   Clear
3:35 AM -0.4 °F - -4.0 °F 85% 30.33 in 5.0 mi Calm Calm - N/A   Clear
3:55 AM -0.4 °F - -2.2 °F 92% 30.35 in 7.0 mi Calm Calm - N/A   Clear
4:15 AM -4.0 °F -12.4 °F -5.8 °F 92% 30.34 in 7.0 mi NW 3.5 mph - N/A   Clear
4:35 AM -0.4 °F -10.4 °F -2.2 °F 92% 30.34 in 7.0 mi NNW 4.6 mph - N/A   Clear
5:45 AM -0.4 °F -13.4 °F -2.2 °F 92% 30.33 in 10.0 mi North 6.9 mph - N/A   Clear
6:50 AM -2.2 °F -15.6 °F -5.8 °F 85% 30.35 in 7.0 mi North 6.9 mph - N/A   Clear
7:45 AM -0.4 °F -13.4 °F -2.2 °F 92% 30.35 in 7.0 mi North 6.9 mph - N/A   Clear
8:50 AM 1.4 °F -11.3 °F -0.4 °F 92% 30.36 in 7.0 mi North 6.9 mph - N/A   Clear
9:50 AM 3.2 °F - 1.4 °F 92% 30.40 in 7.0 mi Calm Calm - N/A   Scattered Clouds
10:47 AM 8.6 °F 2.0 °F 6.8 °F 92% 30.37 in 10.0 mi North 3.5 mph - N/A   Scattered Clouds
11:50 AM 14.0 °F - 3.2 °F 62% 30.35 in 10.0 mi Calm Calm - N/A   Clear
12:45 PM 14.0 °F 8.2 °F 3.2 °F 62% 30.33 in 10.0 mi NNW 3.5 mph - N/A   Clear
1:45 PM 15.8 °F - 3.2 °F 58% 30.31 in 10.0 mi Calm Calm - N/A   Clear
2:52 PM 15.8 °F - 3.2 °F 58% 30.31 in 10.0 mi Calm Calm - N/A   Clear
3:50 PM 15.8 °F - 3.2 °F 58% 30.32 in 10.0 mi Calm Calm - N/A   Clear
4:45 PM 15.8 °F 8.6 °F 3.2 °F 58% 30.28 in 10.0 mi North 4.6 mph - N/A   Clear
5:45 PM 14.0 °F - 3.2 °F 62% 30.31 in 10.0 mi Calm Calm - N/A   Clear
6:45 PM 12.2 °F 2.9 °F 3.2 °F 67% 30.29 in 10.0 mi NNW 5.8 mph - N/A   Clear
7:45 PM 10.4 °F 2.2 °F 3.2 °F 73% 30.28 in 10.0 mi NW 4.6 mph - N/A   Scattered Clouds
8:55 PM 10.4 °F 0.8 °F 3.2 °F 73% 30.26 in 10.0 mi North 5.8 mph - N/A   Clear
9:15 PM 12.2 °F 2.9 °F 5.0 °F 73% 30.26 in 10.0 mi North 5.8 mph - N/A   Clear
9:35 PM 12.2 °F 1.7 °F 5.0 °F 73% 30.26 in 10.0 mi North 6.9 mph - N/A   Clear
9:55 PM 12.2 °F 1.7 °F 5.0 °F 73% 30.26 in 10.0 mi North 6.9 mph - N/A   Clear
10:15 PM 12.2 °F 1.7 °F 5.0 °F 73% 30.25 in 10.0 mi NNE 6.9 mph - N/A   Clear
10:35 PM 12.2 °F 2.9 °F 5.0 °F 73% 30.25 in 10.0 mi North 5.8 mph - N/A   Clear
10:55 PM 12.2 °F 2.9 °F 5.0 °F 73% 30.26 in 10.0 mi North 5.8 mph - N/A   Clear
11:15 PM 12.2 °F 2.9 °F 5.0 °F 73% 30.26 in 10.0 mi North 5.8 mph - N/A   Clear
11:35 PM 12.2 °F 1.7 °F 5.0 °F 73% 30.27 in 10.0 mi North 6.9 mph - N/A   Clear
11:55 PM 10.4 °F -0.4 °F 5.0 °F 79% 30.27 in 10.0 mi North 6.9 mph - N/A   Clear